Location: Unspecified
(0.0000°N, 0.0000°E)
Time: 08:28:21
(UTC+00:00)

deb r/b Ablestar - Pass Details

Date: 14 February 2026
Orbit: 888 x 1147 km, 67.2° (Epoch: 14 March)

Event Time Altitude Azimuth Distance (km) Brightness Sun altitude
Exits shadow 03:28:08 - 24° (NNE) 3,668 ? -40.2°
Reaches altitude 10° 03:31:50 10° 47° (NE) 2,978 ? -39.3°
Maximum altitude 03:34:39 13° 71° (ENE) 2,809 ? -38.7°
Drops below altitude 10° 03:37:29 10° 94° (E) 3,021 ? -38.0°
Sets 03:42:10 0° 121° (ESE) 3,999 ? -36.9°
